Location: Mesa Vista Observatory
(35.5777°N, 105.6987°W)
Time: 07:33:27
(UTC-06:00)

Envisat - Pass Details

Date: 27 June 2019
Orbit: 764 x 766 km, 98.1° (Epoch: 20 July)

Event Time Altitude Azimuth Distance (km) Brightness Sun altitude
Rises 20:57:03 0° 219° (SW) 3,215 6.3 -6.8°
Reaches altitude 10° 21:01:26 10° 255° (WSW) 2,296 6.1 -7.5°
Maximum altitude 21:02:40 11° 269° (W) 2,240 6.3 -7.7°
Drops below altitude 10° 21:03:55 10° 284° (WNW) 2,299 6.8 -7.9°
Sets 21:08:21 0° 321° (NW) 3,232 8.1 -8.6°
